Temperature
15 15 15 15 15 15 15 15 15 15 15 15 15 16 16 16 16 16 16 16 16 17 17 17 17 17 17 17 17 18 18 18 18 18 18 18 18 18 18 18 18 18 18
15 15 15 15 14 14 14 14 14 15 15 15 15 16 16 16 16 16 16 16 16 16 16 17 17 17 17 17 17 18 18 18 18 18 18 18 18 18 18 18 18 18 18
15 15 14 14 14 14 14 14 14 15 15 15 15 15 15 16 16 16 16 16 16 16 16 16 17 17 17 17 17 17 17 17 18 18 18 18 18 18 18 18 18 17 17
15 14 14 14 14 14 14 14 14 15 15 15 15 15 15 15 16 16 16 16 16 16 16 16 16 17 17 17 17 17 17 17 17 17 18 18 18 18 18 18 18 17 17
14 14 14 14 14 14 14 14 14 14 15 15 15 15 15 15 15 16 16 16 16 16 16 16 16 16 17 17 17 17 17 17 17 17 17 18 18 18 17 17 18 18 18
14 14 14 14 14 14 14 14 14 14 15 15 15 15 15 15 15 15 15 16 16 16 16 16 16 16 16 17 17 17 17 17 17 17 17 17 17 17 18 17 17 18 17
15 14 14 14 14 14 14 14 14 14 15 15 15 15 15 15 15 15 15 15 16 16 16 16 16 16 16 16 17 17 17 17 17 17 17 17 17 17 17 17 17 17 17
15 14 14 14 14 14 14 14 14 14 14 14 15 15 15 15 15 15 15 15 15 15 15 15 16 16 16 16 16 17 17 17 17 17 17 17 17 17 17 17 17 17 17
15 14 14 14 14 14 14 14 14 14 14 14 14 14 14 14 15 15 15 15 15 15 15 15 16 16 16 16 16 16 16 16 17 17 17 17 17 17 17 17 17 17 17
15 15 14 14 14 14 14 14 14 14 14 14 14 14 14 14 14 14 15 15 15 15 15 15 15 15 16 16 16 16 16 16 16 16 17 17 17 17 17 17 17 17 17
15 15 15 14 14 14 14 14 14 14 14 14 14 14 14 14 14 14 14 15 15 15 15 15 15 15 16 16 16 16 16 16 16 16 16 16 17 17 17 17 17 17 17
15 15 15 15 14 14 14 14 14 14 14 14 14 14 14 14 14 14 14 15 15 15 15 15 15 15 15 15 16 16 16 16 16 16 16 16 16 17 17 17 17 17 17
15 15 15 15 15 15 14 14 14 14 14 14 14 14 14 14 14 14 14 14 14 15 15 15 15 15 15 15 15 16 16 16 16 16 16 16 16 16 16 16 17 17 17
15 15 15 15 15 15 15 14 14 14 14 14 14 14 14 14 14 14 14 14 14 14 15 15 15 15 15 15 15 15 15 16 16 16 16 16 16 16 16 16 16 16 16
16 15 15 15 15 15 15 15 15 14 14 14 14 14 14 14 14 14 14 14 14 14 14 15 15 15 15 15 15 15 15 15 15 15 16 16 16 16 16 16 16 16 16
16 16 16 16 15 15 15 15 15 15 14 14 14 14 14 14 14 14 14 14 14 14 14 14 15 15 15 15 15 15 15 15 15 15 15 15 16 16 16 16 16 16 16
16 15 15 15 15 15 15 15 15 15 15 14 14 14 14 14 14 14 14 14 14 14 14 14 14 14 14 14 15 15 15 15 15 15 15 15 15 15 15 16 16 16 16
16 15 15 15 15 15 15 15 15 15 15 15 14 14 14 14 14 14 14 14 14 14 14 14 14 14 14 14 14 14 14 14 15 15 15 15 15 15 15 15 15 15 15
15 15 15 15 15 15 15 15 15 15 15 14 14 14 14 14 14 14 14 14 14 14 14 14 14 14 14 14 14 14 14 14 14 14 14 15 15 15 15 15 15 15 15
15 15 15 15 15 15 15 15 15 14 14 14 14 14 14 14 14 14 14 14 14 14 14 14 14 14 14 14 14 14 14 14 14 14 14 14 14 14 14 15 15 15 15
15 15 15 15 14 14 14 14 14 14 14 14 14 14 14 14 14 14 14 14 14 14 14 14 14 13 13 13 13 14 13 13 13 13 14 14 14 14 14 14 14 14 14
14 14 14 14 14 14 14 14 14 14 14 14 14 14 14 14 14 14 14 14 14 14 14 13 13 13 13 13 13 13 13 13 13 13 13 13 13 13 13 14 14 14 14
14 14 14 14 13 13 13 13 13 13 13 13 13 13 13 13 13 13 13 13 13 13 13 13 13 13 13 13 13 13 13 13 13 13 13 13 13 13 13 13 13 13 13
13 13 13 13 13 13 13 13 13 13 13 13 13 13 13 13 13 13 13 13 13 13 13 13 13 13 13 13 13 13 13 13 13 13 13 13 13 13 13 13 13 13 13
13 12 12 12 12 12 12 12 12 12 12 12 12 12 12 12 12 12 12 13 13 13 13 13 13 13 13 13 13 13 13 13 12 13 13 12 13 12 12 12 12 12 12
12 12 12 12 11 11 11 11 11 11 11 12 12 12 12 12 12 12 12 12 12 13 13 13 13 13 13 13 13 12 12 12 12 12 13 12 12 12 12 12 12 12 12
Wind_Speed
3 3 3 4 5 5 4 3 4 4 4 4 3 1 0 1 1 1 2 5 7 7 7 8 9 9 9 9 9 9 9 9 9 9 9 10 11 12 12 13 13 14 15
3 3 3 3 4 5 4 3 3 3 3 3 3 3 2 0 1 1 2 3 5 6 6 7 8 9 10 10 9 9 9 9 9 9 9 10 10 11 12 13 13 13 14
5 3 3 4 4 6 6 4 4 3 4 4 4 3 2 1 1 1 2 2 3 4 5 6 6 8 9 10 10 9 9 9 9 9 10 10 10 11 12 12 13 13 13
6 4 3 3 4 5 4 3 3 3 4 3 3 3 2 2 1 1 1 2 2 2 4 5 6 7 8 10 10 10 10 10 10 10 10 11 11 11 12 12 12 12 12
7 5 3 3 4 4 3 4 3 2 3 4 3 2 2 2 1 1 1 1 2 2 2 4 5 6 7 9 10 10 10 10 10 10 10 11 11 11 11 12 12 12 12
6 5 3 4 4 4 4 4 3 3 2 3 3 3 3 2 2 1 0 1 1 1 2 2 3 4 6 7 8 9 10 11 11 10 11 11 12 12 12 12 12 12 12
4 4 3 3 4 3 3 4 3 4 3 3 3 4 4 4 3 2 2 1 1 1 2 2 2 3 4 6 8 8 9 10 11 11 11 11 12 13 13 12 12 12 12
2 3 3 3 3 3 4 5 3 3 3 3 2 2 3 5 4 4 3 2 1 2 1 1 2 2 3 4 5 7 8 9 10 11 11 11 13 13 13 13 12 13 13
1 2 2 2 2 2 2 3 3 3 3 3 2 2 2 1 2 3 3 3 2 2 1 1 1 1 2 3 4 5 7 8 10 11 11 11 12 13 13 13 13 13 13
1 0 1 2 2 2 2 3 3 2 2 2 3 2 1 2 1 2 3 3 3 2 1 1 1 0 2 2 4 5 7 8 9 10 11 11 12 13 13 13 13 14 14
2 2 0 1 1 1 2 3 3 2 1 1 1 2 2 2 1 2 1 3 3 2 1 1 0 0 1 2 3 5 7 7 8 9 10 10 11 12 13 13 13 14 14
2 2 1 0 0 1 1 2 2 2 2 1 1 1 1 1 0 1 1 1 1 2 2 1 1 0 1 2 3 5 6 7 7 8 8 9 10 12 13 14 14 14 14
2 3 2 1 1 1 1 1 2 2 2 2 1 1 0 0 1 1 1 0 1 2 2 2 1 0 1 2 2 4 6 7 6 7 8 8 9 10 12 13 14 14 15
3 3 3 2 2 1 1 1 1 1 1 1 2 1 1 1 0 1 2 2 1 2 2 2 2 1 0 2 2 3 4 6 6 7 8 7 8 9 10 11 12 13 14
2 2 2 2 2 1 1 0 1 2 1 1 2 2 1 1 1 0 1 2 2 0 2 2 2 1 1 2 3 3 3 5 6 7 8 8 8 9 10 11 12 13 13
1 1 2 2 2 2 1 1 1 2 2 2 1 1 1 1 1 1 0 1 2 3 2 2 2 2 1 1 3 4 4 5 5 6 7 8 8 8 10 11 11 12 12
2 2 2 2 2 3 2 1 2 2 2 3 2 1 2 1 1 1 0 1 1 2 2 2 1 1 1 1 1 2 3 4 4 6 7 7 8 8 8 9 11 11 11
2 2 2 2 2 3 3 3 3 3 2 3 3 2 3 2 1 1 0 0 1 2 2 2 1 1 1 2 2 2 2 3 4 5 7 7 8 8 8 8 10 10 10
3 3 3 2 2 2 3 3 3 3 3 4 3 3 3 2 2 2 1 1 1 1 2 2 2 1 1 1 1 1 1 0 2 4 5 6 7 8 8 9 9 9 9
3 4 3 3 3 2 2 2 2 2 3 4 3 3 4 4 4 3 2 3 2 1 1 2 2 2 2 1 1 2 1 1 1 1 2 4 5 7 8 9 9 10 10
4 4 4 4 4 3 2 1 1 1 2 3 4 4 4 5 6 5 3 3 3 2 2 2 3 2 2 2 3 2 2 1 1 1 1 1 2 3 4 7 9 10 11
5 5 5 4 5 4 6 4 1 1 2 2 4 4 5 4 5 6 6 5 5 4 4 3 3 4 4 4 3 3 3 2 2 2 2 2 2 2 3 6 8 10 11
4 5 5 5 5 6 8 7 5 1 2 3 3 4 4 4 4 4 6 6 7 7 7 5 5 6 5 5 4 4 4 4 4 3 3 2 2 2 3 5 9 11 11
4 4 5 5 5 8 11 9 8 3 3 4 4 4 4 6 5 4 5 5 6 6 7 6 6 7 7 5 5 6 5 4 1 1 3 3 2 2 2 3 7 9 10
3 3 4 5 5 7 11 11 8 3 4 5 5 4 4 5 8 7 4 6 7 7 8 9 10 9 10 9 6 3 3 3 3 3 3 3 3 2 1 2 4 8 10
2 3 4 4 4 5 10 12 9 3 4 5 6 6 7 8 11 8 4 5 7 8 6 6 6 8 7 7 9 7 6 5 3 3 4 4 4 3 2 2 2 5 6
Wind_Direction
40 37 32 22 8 2 357 350 346 343 343 342 344 352 294 204 210 195 231 207 197 195 196 194 185 181 178 174 168 161 157 152 144 138 129 123 119 119 117 116 115 113 112
67 52 30 17 9 5 6 6 354 349 338 340 350 350 344 25 203 182 206 211 202 196 192 196 193 185 182 176 173 167 161 159 155 149 141 136 131 130 127 123 122 121 118
71 67 39 20 359 8 17 14 3 0 1 1 353 344 354 15 86 170 171 180 201 205 201 201 200 191 187 182 180 176 170 165 163 158 152 148 142 139 136 133 129 128 127
66 63 44 13 359 14 13 7 5 358 356 353 343 336 352 360 3 90 145 179 196 215 209 204 204 198 192 187 185 183 178 173 168 166 160 157 152 148 144 141 137 135 135
58 64 45 5 11 17 7 359 12 360 348 344 336 352 1 360 349 50 103 167 185 188 190 197 205 199 195 194 189 188 183 180 175 172 168 164 160 157 154 151 147 145 144
63 64 45 15 20 21 8 2 357 357 346 339 1 13 3 359 18 45 92 80 101 156 161 159 183 200 200 198 194 191 187 184 180 176 174 171 167 164 162 160 157 154 155
70 64 40 17 19 23 7 2 3 1 357 2 30 12 4 16 32 27 30 63 69 88 125 146 167 186 201 202 201 196 190 189 185 182 178 177 174 171 169 168 167 165 163
68 59 54 32 22 21 17 17 23 12 359 18 53 53 12 360 6 17 19 42 54 58 74 127 138 160 188 187 196 196 195 190 188 186 183 182 178 175 174 174 173 173 171
97 62 58 53 36 40 15 5 22 37 9 356 40 101 95 331 328 349 6 14 25 44 35 50 98 162 182 183 190 197 196 192 189 190 189 185 181 180 177 178 180 180 177
241 286 47 53 45 36 9 353 29 32 49 5 351 24 148 170 137 350 344 355 8 20 13 12 67 193 182 179 193 199 200 195 193 193 191 191 189 186 185 184 185 186 183
281 273 11 50 41 15 357 6 17 24 46 46 2 353 18 40 82 132 323 337 351 343 342 330 323 188 188 188 203 205 198 195 197 198 198 198 198 193 192 191 190 191 190
297 285 264 241 314 346 342 352 13 22 21 35 19 27 51 50 30 114 183 293 310 316 334 329 308 261 190 188 212 201 195 196 196 197 199 201 202 198 196 196 195 194 193
267 267 258 241 249 277 319 6 28 12 13 25 0 356 9 255 203 149 132 248 304 315 334 331 290 261 207 187 207 191 189 196 201 199 195 199 202 204 202 202 203 200 199
240 247 243 242 249 266 316 23 12 336 5 12 351 351 357 324 68 150 155 144 38 344 339 299 310 268 241 196 202 185 187 191 196 200 198 200 202 206 205 204 204 203 202
245 237 237 241 255 260 260 233 322 310 345 352 328 332 338 327 359 118 148 151 147 173 294 281 289 285 249 206 199 183 193 200 202 202 200 201 205 209 208 207 207 205 204
289 264 267 255 249 252 248 242 278 290 323 322 309 327 327 312 342 8 131 154 158 166 229 263 259 271 259 212 200 197 208 208 215 209 203 203 205 206 209 210 207 204 201
326 289 272 249 236 242 244 246 282 290 302 310 317 310 293 288 317 332 39 84 149 158 203 273 279 301 303 247 204 213 223 216 221 216 209 211 206 202 203 206 201 200 200
358 335 317 297 271 255 244 237 262 270 275 285 283 287 285 275 291 299 316 273 221 192 184 237 281 283 260 241 232 223 216 223 218 213 210 208 203 201 202 200 195 194 195
360 5 8 351 309 280 262 255 256 264 263 266 262 251 257 237 256 264 245 252 255 217 181 198 243 253 266 254 232 249 214 289 229 212 208 208 204 200 197 194 189 188 189
18 8 359 343 324 326 326 310 282 279 281 281 273 256 250 229 225 231 235 244 241 221 194 197 230 242 247 253 183 201 230 271 249 217 203 203 203 200 197 193 189 187 188
20 8 4 355 348 345 335 323 304 323 304 301 299 278 262 245 235 223 218 225 212 210 205 213 232 232 229 212 212 203 207 236 278 222 191 211 191 196 206 202 196 190 186
9 12 8 360 356 354 343 340 343 324 324 315 311 302 288 270 267 256 246 226 203 200 207 212 227 225 230 220 209 196 190 191 249 225 176 220 180 205 217 203 196 190 188
8 7 1 1 351 341 352 354 350 341 310 303 301 309 309 298 277 269 270 260 245 235 213 203 214 228 227 218 199 203 206 201 219 210 164 217 199 215 223 207 198 193 188
5 360 358 359 358 354 357 353 351 354 324 307 293 286 293 300 299 283 269 266 261 256 243 229 224 231 230 220 203 204 203 202 232 233 170 199 202 212 212 204 203 197 193
4 358 358 5 4 350 359 360 1 351 335 323 314 309 301 291 297 296 281 271 272 271 260 244 238 240 237 226 203 175 173 177 225 232 191 181 188 181 187 218 213 202 196
357 359 6 2 1 350 360 8 11 10 341 329 327 324 319 321 317 307 277 265 269 271 267 264 255 254 247 238 215 199 197 195 202 225 206 177 178 161 197 232 195 194 196
Height
1530 1529 1527 1526 1525 1524 1522 1521 1520 1519 1519 1518 1518 1518 1519 1519 1519 1520 1521 1521 1522 1523 1524 1525 1526 1527 1528 1529 1530 1531 1532 1533 1534 1535 1535 1536 1537 1538 1538 1539 1541 1542 1543
1530 1528 1527 1526 1524 1523 1521 1520 1519 1518 1517 1517 1517 1518 1518 1518 1519 1519 1520 1521 1521 1522 1523 1524 1525 1526 1528 1529 1530 1531 1533 1534 1535 1536 1537 1538 1538 1540 1541 1542 1543 1544 1545
1530 1528 1527 1525 1524 1522 1521 1519 1518 1517 1516 1516 1516 1516 1517 1518 1518 1518 1519 1520 1521 1522 1522 1523 1525 1526 1527 1529 1530 1531 1533 1534 1535 1536 1538 1539 1540 1541 1542 1544 1545 1546 1548
1530 1528 1527 1525 1524 1522 1520 1519 1518 1517 1516 1515 1515 1515 1516 1517 1517 1518 1518 1519 1520 1521 1522 1523 1524 1525 1527 1528 1529 1531 1533 1534 1535 1537 1538 1539 1541 1542 1543 1545 1546 1548 1549
1530 1528 1527 1525 1524 1522 1520 1519 1517 1516 1515 1515 1514 1515 1515 1515 1516 1517 1518 1519 1519 1520 1521 1522 1523 1525 1526 1528 1529 1531 1532 1534 1535 1537 1538 1540 1541 1543 1544 1546 1547 1549 1550
1530 1529 1527 1526 1524 1522 1521 1519 1518 1517 1515 1515 1514 1514 1514 1515 1516 1516 1517 1518 1518 1519 1520 1521 1522 1524 1526 1527 1529 1530 1532 1533 1535 1536 1538 1540 1541 1543 1544 1546 1548 1549 1551
1531 1529 1527 1526 1524 1523 1521 1520 1518 1517 1516 1515 1514 1514 1514 1515 1516 1516 1517 1517 1518 1518 1519 1521 1522 1523 1525 1526 1528 1530 1531 1532 1534 1536 1537 1539 1541 1543 1545 1546 1548 1550 1552
1532 1530 1528 1527 1525 1524 1522 1521 1519 1518 1517 1516 1515 1515 1515 1517 1516 1516 1517 1517 1518 1518 1519 1520 1522 1523 1524 1526 1527 1529 1530 1532 1533 1535 1537 1539 1540 1542 1544 1546 1548 1550 1552
1533 1531 1529 1528 1526 1524 1523 1522 1520 1519 1518 1517 1517 1517 1516 1516 1516 1517 1517 1517 1517 1518 1519 1520 1521 1522 1524 1525 1527 1528 1530 1531 1533 1534 1536 1537 1540 1542 1544 1546 1548 1550 1552
1534 1532 1530 1529 1527 1525 1524 1523 1522 1521 1520 1519 1518 1518 1518 1517 1517 1517 1518 1517 1517 1518 1519 1519 1520 1522 1523 1524 1526 1527 1529 1530 1532 1533 1535 1536 1539 1541 1543 1545 1547 1549 1551
1534 1533 1531 1530 1528 1527 1525 1524 1523 1522 1521 1520 1519 1519 1518 1518 1518 1518 1517 1518 1518 1518 1519 1519 1520 1521 1522 1524 1525 1526 1528 1529 1531 1532 1534 1536 1538 1540 1542 1544 1546 1548 1550
1534 1533 1532 1531 1529 1528 1526 1525 1524 1523 1522 1521 1520 1520 1519 1519 1518 1518 1518 1517 1518 1518 1518 1519 1520 1521 1521 1523 1524 1525 1527 1528 1530 1531 1532 1535 1536 1538 1540 1542 1544 1547 1549
1535 1534 1532 1531 1530 1529 1527 1526 1525 1524 1523 1522 1521 1521 1520 1519 1519 1519 1518 1518 1518 1518 1518 1519 1519 1520 1521 1522 1523 1524 1525 1526 1528 1529 1531 1533 1535 1537 1538 1540 1542 1545 1546
1535 1534 1533 1532 1531 1529 1528 1527 1526 1525 1524 1523 1522 1522 1521 1520 1519 1519 1519 1518 1518 1518 1517 1518 1518 1519 1520 1520 1521 1522 1523 1525 1526 1527 1529 1531 1532 1534 1536 1538 1540 1542 1544
1534 1534 1533 1532 1531 1530 1529 1528 1526 1525 1525 1524 1523 1522 1521 1521 1520 1519 1519 1519 1519 1518 1517 1517 1518 1518 1519 1519 1520 1521 1522 1523 1524 1525 1527 1528 1530 1532 1534 1536 1538 1540 1542
1534 1533 1533 1532 1531 1530 1529 1528 1527 1526 1525 1524 1523 1522 1521 1521 1520 1519 1519 1518 1518 1518 1517 1517 1517 1517 1517 1518 1519 1519 1520 1521 1522 1524 1525 1526 1527 1529 1531 1533 1535 1537 1539
1533 1533 1532 1531 1531 1530 1529 1528 1527 1526 1525 1524 1523 1522 1521 1521 1520 1519 1519 1518 1517 1517 1516 1516 1516 1516 1516 1517 1517 1518 1518 1519 1520 1521 1522 1524 1525 1526 1527 1529 1531 1533 1535
1533 1532 1531 1530 1530 1529 1528 1527 1526 1525 1524 1523 1523 1522 1521 1520 1519 1519 1518 1517 1517 1516 1516 1515 1515 1515 1515 1515 1516 1516 1517 1517 1518 1519 1520 1521 1522 1523 1525 1526 1528 1530 1532
1531 1530 1530 1529 1528 1527 1527 1526 1525 1524 1523 1522 1522 1521 1520 1519 1518 1518 1517 1516 1515 1515 1514 1514 1513 1513 1514 1514 1514 1515 1515 1515 1516 1517 1518 1518 1519 1521 1522 1523 1525 1526 1528
1530 1529 1528 1527 1526 1526 1525 1524 1523 1522 1522 1521 1520 1519 1518 1518 1517 1516 1515 1514 1514 1513 1512 1512 1511 1511 1512 1512 1512 1512 1513 1513 1514 1515 1515 1516 1517 1518 1519 1521 1522 1523 1525
1528 1527 1526 1525 1524 1523 1523 1522 1521 1520 1519 1518 1517 1517 1516 1515 1514 1514 1513 1512 1511 1511 1510 1510 1509 1509 1509 1509 1510 1510 1511 1511 1511 1512 1512 1513 1514 1515 1516 1517 1519 1520 1522
1526 1525 1524 1523 1522 1521 1520 1519 1518 1517 1516 1515 1514 1513 1513 1512 1511 1511 1510 1509 1509 1508 1507 1507 1506 1506 1506 1507 1507 1508 1508 1508 1508 1509 1510 1511 1511 1512 1513 1514 1516 1517 1518
1524 1523 1522 1521 1520 1519 1518 1516 1515 1514 1513 1512 1511 1510 1509 1509 1508 1507 1506 1506 1505 1505 1505 1504 1503 1503 1503 1504 1504 1505 1505 1504 1505 1506 1507 1507 1508 1509 1510 1511 1512 1514 1515
1522 1521 1520 1518 1517 1516 1515 1513 1512 1511 1510 1509 1508 1506 1505 1504 1504 1503 1502 1501 1501 1501 1501 1500 1500 1499 1500 1500 1500 1501 1501 1502 1502 1502 1503 1503 1504 1505 1507 1508 1509 1510 1512
1520 1519 1517 1516 1515 1513 1512 1511 1509 1508 1506 1505 1504 1503 1502 1500 1500 1499 1498 1496 1496 1496 1496 1496 1495 1495 1495 1496 1496 1497 1497 1497 1497 1498 1499 1500 1500 1501 1503 1504 1505 1507 1508
1518 1517 1516 1514 1512 1511 1509 1507 1506 1504 1502 1501 1500 1499 1497 1496 1494 1494 1493 1491 1490 1490 1490 1490 1490 1490 1490 1491 1491 1492 1492 1493 1493 1493 1494 1496 1496 1497 1498 1499 1501 1503 1504